Tracking 19717 objects as of 25-Jun-2019
HD Live streaming from Space Station
objects crossing your sky now

LEMUR-2 VICTOR-ANDREW

Track LEMUR-2 VICTOR-ANDREW now!
10-day predictions
LEMUR-2 VICTOR-ANDREW is classified as:


NORAD ID: 44087
Int'l Code: 2019-018K
Perigee: 498.4 km
Apogee: 516.7 km
Inclination: 97.5 °
Period: 94.6 minutes
Semi major axis: 6878 km
RCS: Unknown
Launch date: April 1, 2019
Source: United States (US)
Launch site: SRIHARIKOTA (SRI)
aabbcc
Your satellite tracking list
Your tracking list is empty




NASA's NSSDC Master Catalog

Two Line Element Set (TLE):
1 44087U 19018K   19176.16937103  .00001394  00000-0  64402-4 0  9993
2 44087  97.4566 235.9944 0013309 354.9600   5.1500 15.21807177 12903
Source of the keplerian elements: AFSPC